Погода в Острове Праслен

Сейшельские острова     4°19′09″S   55°44′48″E
темп.,
°C
ветер,
м/с
пор.,
м/с
влажн.,
%
обл.,
%
осадки,
мм/ч
давл.,
гПа
погр.,
м
18 мая, ср
ср1801:00+28ююв887787 1.4 1010906
04:00+27ю788225 4.6 1009699
07:00+27ю8980100 2.8 1010800
10:00+28ю7777100 3.5 1011887
13:00+28ю8878100 0.1 1010879
16:00+28ююв788094 1.4 1009683
19:00+27ююв7881100 8.1 1011559
22:00+28ююв787915 11.9 1012782
19 мая, чт
чт1901:00+27ююв788141 2.3 1010611
04:00+28ююв787881 3.8 1009690
07:00+28ююв6780100 1.3 1011687
10:00+27ююв668294 3.8 1012538
13:00+28ююв667814 2.6 1010710
16:00+28юв567761 3.5 1009745
19:00+28ююв557936 2.8 1011578
22:00+27юв448154 8.8 1012268
20 мая, пт
пт2001:00+28ю22779 3.5 1010235
04:00+28ююв3377100 3.5 1009546
07:00+28юв447783 0.0 1011680
10:00+28юв5579100 0.2 1012670
13:00+28юв5678100 0.1 1010771
16:00+28юв667997 0.1 1009775
19:00+28вюв6680100 1.1 1010664
22:00+28вюв677859 1.3 1011787
21 мая, сб
сб2101:00+28вюв6779100 0.1 1010775
04:00+28вюв777874 0.3 1009821
07:00+28вюв777842 0.4 1010803
10:00+28вюв7880100 1.6 1012720
13:00+28вюв7778100 0.2 1010812
16:00+28вюв6680100 1.6 1009580
19:00+28вюв5680100 3.2 1011431
22:00+28вюв5578100 6.3 1011489
22 мая, вс
вс2201:00+28вюв6676100 0.7 1010669
04:00+28юв6777100 1.6 1009664
07:00+28вюв6776100 0.3 1010727
10:00+28вюв667698 0.6 1012909
13:00+28вюв5680100 3.8 1010489
16:00+28юв5577100 7.1 1009602
19:00+28юв5678100 1.6 1010512
22:00+28ююв667897 1.8 1011714